This demonstration page uses our WeatherBlox Daily Observations layout. Learn more.

Left ArrowRight Arrow

40.92945, -100.16068

Hourly Observations for May 17, 2020

Temp ( °F °C ) Dew Point ( °F °C ) Humidity (%) Winds ( mph kmh ) Pressure ( in mb ) Visibility ( mi km ) Precip ( " mm )
12:15 am 00:15 Clear 50 10.1 49 9.5 96 96 NNW 9 15 30.03 1017 10 16.0934 0 0
12:35 am 00:35 Clear 50 10.2 49 9.5 95 95 NNW 9 15 30.04 1017 10 16.0934 0 0
12:55 am 00:55 Clear 50 10.2 48 9 92 92 N 10 17 30.04 1017 10 16.0934 0 0
1:15 am 01:15 Clear 50 9.8 48 8.7 93 93 NNW 8 13 30.04 1017 10 16.0934 0 0
1:35 am 01:35 Clear 49 9.5 47 8.5 94 94 NNW 10 17 30.05 1017 10 16.0934 0 0
1:55 am 01:55 Clear 48 9.1 47 8.1 94 94 NNW 9 15 30.05 1018 10 16.0934 0 0
2:15 am 02:15 Clear 48 9 46 8 94 94 NNW 7 11 30.05 1018 10 16.0934 0 0
2:35 am 02:35 Clear 48 8.7 46 7.6 93 93 NW 8 13 30.05 1018 10 16.0934 0 0
2:55 am 02:55 Clear 47 8.5 46 7.5 94 94 NNW 6 9 30.05 1017 10 16.0934 0 0
3:15 am 03:15 Clear 47 8.3 46 7.5 95 95 NW 8 13 30.06 1018 10 16.0934 0 0
3:35 am 03:35 Partly Cloudy 47 8.4 46 7.6 95 95 W 9 15 30.07 1018 10 16.0934 0 0
3:55 am 03:55 Cloudy 48 9.1 47 8.2 94 94 WNW 9 15 30.05 1018 10 16.0934 0 0
4:15 am 04:15 Cloudy 49 9.2 47 8.2 94 94 WNW 10 17 30.05 1018 10 16.0934 0 0
4:35 am 04:35 Cloudy 49 9.5 47 8.5 94 94 WNW 9 15 30.06 1018 10 16.0934 0 0
4:55 am 04:55 Cloudy 49 9.5 47 8.5 94 94 W 12 19 30.07 1018 10 16.0934 0 0
5:15 am 05:15 Cloudy 49 9.6 47 8.5 93 93 WNW 12 19 30.06 1018 10 16.0934 0 0
5:35 am 05:35 Cloudy 49 9.7 47 8.5 92 92 WNW 12 19 30.05 1018 10 16.0934 0 0
5:55 am 05:55 Cloudy 49 9.6 47 8.4 92 92 WNW 15 24 30.06 1018 10 16.0934 0 0
6:15 am 06:15 Cloudy with Drizzle 49 9.5 47 8.5 94 94 NW 14 22 30.07 1018 5 8.0467 0 0
6:35 am 06:35 Cloudy 49 9.6 47 8.2 91 91 NW 14 22 30.06 1018 10 16.0934 0 0
6:55 am 06:55 Cloudy 49 9.7 47 8.1 90 90 NW 15 24 30.06 1018 10 16.0934 0 0
7:15 am 07:15 Cloudy 49 9.5 46 8 90 90 NW 14 22 30.07 1018 10 16.0934 0 0
7:35 am 07:35 Cloudy 49 9.6 46 8 90 90 NW 12 19 30.07 1018 10 16.0934 0 0
7:55 am 07:55 Cloudy 50 9.9 47 8.1 89 89 NW 13 20 30.07 1018 10 16.0934 0 0
8:15 am 08:15 Partly Cloudy 51 10.8 47 8.5 86 86 NNW 14 22 30.06 1018 10 16.0934 0 0
8:35 am 08:35 Sunny 53 11.5 47 8.4 81 81 NNW 16 26 30.06 1018 10 16.0934 0 0
8:55 am 08:55 Partly Cloudy 54 12.4 48 9 80 80 NNW 17 28 30.06 1018 10 16.0934 0 0
9:15 am 09:15 Mostly Cloudy 54 12 47 8.3 78 78 NNW 18 30 30.06 1018 10 16.0934 0 0
9:35 am 09:35 Cloudy 53 11.7 47 8.2 79 79 NNW 20 31 30.08 1018 10 16.0934 0 0
9:55 am 09:55 Mostly Cloudy 55 12.7 46 8 73 73 NNW 14 22 30.07 1018 10 16.0934 0 0
10:15 am 10:15 Mostly Cloudy 55 12.7 46 7.7 72 72 NNW 15 24 30.07 1018 10 16.0934 0 0
10:35 am 10:35 Cloudy 55 13 47 8.2 73 73 NNW 13 20 30.06 1018 10 16.0934 0 0
10:55 am 10:55 Cloudy 55 12.8 46 7.9 72 72 NNW 14 22 30.07 1018 10 16.0934 0 0
11:15 am 11:15 Cloudy 55 12.9 46 7.7 71 71 N 13 20 30.06 1018 10 16.0934 0 0
11:35 am 11:35 Cloudy 56 13.1 45 7.3 68 68 NNW 14 22 30.06 1018 10 16.0934 0 0
11:55 am 11:55 Cloudy 57 13.9 47 8.1 68 68 NW 14 22 30.05 1017 10 16.0934 0 0
12:15 pm 12:15 Cloudy 58 14.2 47 8.1 67 67 NNW 15 24 30.04 1017 10 16.0934 0 0
12:35 pm 12:35 Cloudy 57 13.8 46 7.9 68 68 N 12 19 30.05 1017 10 16.0934 0 0
12:55 pm 12:55 Cloudy 57 14 46 7.9 67 67 NW 12 19 30.03 1017 10 16.0934 0 0
1:15 pm 13:15 Cloudy 58 14.2 46 8 67 67 NW 12 19 30.03 1017 10 16.0934 0 0
1:35 pm 13:35 Cloudy 58 14.3 47 8.5 68 68 NNW 12 19 30.03 1017 10 16.0934 0 0
1:55 pm 13:55 Cloudy 59 14.8 47 8.3 65 65 NNW 12 19 30.03 1017 10 16.0934 0 0
2:15 pm 14:15 Cloudy 60 15.8 48 8.8 63 63 N 13 20 30.01 1016 10 16.0934 0 0
2:35 pm 14:35 Cloudy 61 16.1 48 8.8 62 62 N 12 19 30 1016 10 16.0934 0 0
2:55 pm 14:55 Mostly Cloudy 61 16.1 47 8.6 61 61 NNW 14 22 30 1016 10 16.0934 0 0
3:15 pm 15:15 Mostly Cloudy 62 16.5 48 9.1 62 62 N 15 24 29.99 1016 10 16.0934 0 0
3:35 pm 15:35 Mostly Cloudy 61 16.2 49 9.3 64 64 N 15 24 29.99 1015 10 16.0934 0 0
3:55 pm 15:55 Mostly Cloudy 63 17.3 49 9.3 60 60 NNW 15 24 29.98 1015 10 16.0934 0 0
4:15 pm 16:15 Partly Cloudy 62 16.9 48 9.1 60 60 NNW 13 20 29.97 1015 10 16.0934 0 0
4:35 pm 16:35 Partly Cloudy 64 17.5 49 9.2 58 58 NNW 14 22 29.96 1015 10 16.0934 0 0
4:55 pm 16:55 Mostly Cloudy 64 17.6 49 9.5 59 59 N 13 20 29.95 1014 10 16.0934 0 0
5:15 pm 17:15 Mostly Cloudy 62 16.9 48 9 60 60 N 12 19 29.96 1015 10 16.0934 0 0
5:35 pm 17:35 Partly Cloudy 63 17 48 8.9 59 59 NNW 10 17 29.96 1014 10 16.0934 0 0
5:55 pm 17:55 Partly Cloudy 62 16.8 48 8.9 60 60 N 15 24 29.97 1015 10 16.0934 0 0
6:15 pm 18:15 Partly Cloudy 62 16.7 48 9 61 61 NNE 15 24 29.97 1015 10 16.0934 0 0
6:35 pm 18:35 Partly Cloudy 62 16.7 48 9 61 61 N 13 20 29.98 1015 10 16.0934 0 0
6:55 pm 18:55 Mostly Cloudy 60 15.8 48 9 64 64 NNE 15 24 29.99 1016 10 16.0934 0 0
7:15 pm 19:15 Cloudy 59 15.1 47 8.5 65 65 NNE 13 20 30 1016 10 16.0934 0 0
7:35 pm 19:35 Cloudy 59 15 47 8.2 64 64 N 9 15 30.01 1016 10 16.0934 0 0
7:55 pm 19:55 Cloudy 58 14.7 47 8.5 67 67 NNE 8 13 30.01 1016 10 16.0934 0 0
8:15 pm 20:15 Cloudy 58 14.5 46 8 65 65 NNE 9 15 30.01 1016 10 16.0934 0 0
8:35 pm 20:35 Cloudy 56 13.6 47 8.5 72 72 NNE 6 9 30.02 1017 10 16.0934 0 0
8:55 pm 20:55 Cloudy 56 13.3 48 8.8 74 74 N 6 9 30.03 1017 10 16.0934 0 0
9:15 pm 21:15 Cloudy 56 13.5 48 9.1 75 75 N 5 7 30.03 1017 10 16.0934 0 0
9:35 pm 21:35 Partly Cloudy 53 11.5 48 9.1 85 85 NNW 6 9 30.05 1018 10 16.0934 0 0
9:55 pm 21:55 Partly Cloudy 50 10.2 47 8.5 89 89 NNW 7 11 30.07 1018 10 16.0934 0 0
10:15 pm 22:15 Mostly Cloudy 50 10 47 8.5 91 91 NNW 7 11 30.08 1019 10 16.0934 0 0
10:35 pm 22:35 Partly Cloudy 50 9.9 47 8.4 90 90 N 5 7 30.08 1019 10 16.0934 0 0
10:55 pm 22:55 Clear 48 8.9 46 7.6 92 92 NNW 6 9 30.09 1019 10 16.0934 0 0
11:15 pm 23:15 Clear 49 9.2 47 8.2 94 94 N 5 7 30.08 1019 10 16.0934 0 0
11:35 pm 23:35 Clear 48 8.8 46 7.7 93 93 N 5 7 30.09 1019 10 16.0934 0 0
11:55 pm 23:55 Clear 47 8.1 45 7.3 95 95 N 6 9 30.09 1019 10 16.0934 0 0

Powered by AerisWeather